This is the latest recevied weather packets stored in our database for station/object K4DFD-13. If no packets are shown the sender has not sent any weather packets the latest 10 day(s).
| Time | Temp. | Humidity | Pressure | Rain* | Wind** | Luminosity | Snow |
|---|---|---|---|---|---|---|---|
| 1777214608 | 18.33° C | 67% | 1015.7 hPa | 0 mm | - | - | - |
| 1777214307 | 17.22° C | 71% | 1015.8 hPa | 0 mm | - | - | - |
| 1777214007 | 17.22° C | 72% | 1016.4 hPa | 0 mm | - | - | - |
| 1777213706 | 17.22° C | 72% | 1016.1 hPa | 0 mm | - | - | - |
| 1777213406 | 16.67° C | 73% | 1015.7 hPa | 0 mm | - | - | - |
| 1777213106 | 16.67° C | 74% | 1016.1 hPa | 0 mm | - | - | - |
| 1777212805 | 17.22° C | 75% | 1015.8 hPa | 0 mm | - | - | - |
| 1777212505 | 16.67° C | 75% | 1015.5 hPa | 0 mm | - | - | - |
| 1777212204 | 16.67° C | 74% | 1015.3 hPa | 0 mm | - | - | - |
| 1777211904 | 16.11° C | 76% | 1015.1 hPa | 0 mm | - | - | - |
| 1777211604 | 15.56° C | 78% | 1015.7 hPa | 0 mm | - | - | - |
| 1777211303 | 16.11° C | 78% | 1015.7 hPa | 0 mm | - | - | - |
| 1777211003 | 16.11° C | 76% | 1015.4 hPa | 0 mm | - | - | - |
| 1777210703 | 16.11° C | 76% | 1015.5 hPa | 0 mm | - | - | - |
| 1777210402 | 16.67° C | 76% | 1015.8 hPa | 0 mm | - | - | - |
| 1777210102 | 16.11° C | 78% | 1015.4 hPa | 0 mm | - | - | - |
| 1777209802 | 16.67° C | 76% | 1015.4 hPa | 0 mm | - | - | - |
| 1777209501 | 16.11° C | 80% | 1015.5 hPa | 0 mm | - | - | - |
| 1777209201 | 16.11° C | 79% | 1015.5 hPa | 0 mm | - | - | - |
| 1777208900 | 16.11° C | 81% | 1015.6 hPa | 0 mm | - | - | - |
| 1777208600 | 16.67° C | 84% | 1015.5 hPa | 0 mm | - | - | - |
| 1777208300 | 16.11° C | 82% | 1015.4 hPa | 0 mm | - | - | - |
| 1777208000 | 15.56° C | 84% | 1015.5 hPa | 0 mm | - | - | - |
| 1777207699 | 15.56° C | 84% | 1015.4 hPa | 0 mm | - | - | - |
| 1777207399 | 15.56° C | 84% | 1015.4 hPa | 0 mm | - | - | - |
* Rain latest hour (hover to see other rain measurements)
** Current wind speed in m/s (hover to see current wind gust speed)